Simultaneous Nadir Overpasses (SNOs) Predictions

Prediction of SNOs between METOP-B and NOAA-19 Satellite Orbit:

Table of predicted SNOs for the next 14.0 days since TLE Epoch: 1/29/2016
Index Date (METOP-B) Time (METOP-B) Lat,Lon (METOP-B) SZA (METOP-B ) Date (NOAA-19) Time (NOAA-19) Lat,Lon (NOAA-19) SZA (NOAA-19 ) Distance(km) Time Diff (sec)
1 02/08/2016 23:10:40 -75.77, 11.60 89.34 02/08/2016 23:09:25 -75.79, 11.35 89.31 7.19 75
2 02/09/2016 00:01:21 75.72, 178.77 90.60 02/09/2016 00:00:29 75.75, 178.72 90.64 3.37 52
3 02/09/2016 00:52:03 -75.70, -13.97 89.43 02/09/2016 00:51:26 -75.74, -13.97 89.40 3.84 37
4 02/09/2016 01:42:43 75.70, 153.35 90.56 02/09/2016 01:42:30 75.69, 153.41 90.55 1.53 13
5 02/09/2016 02:33:25 -75.68, -39.38 89.48 02/09/2016 02:33:27 -75.68, -39.29 89.48 2.76 2
6
